Location: Chaumontel
(49.1247°N, 2.4324°E)
Time: 13:54:05
(UTC+00:00)

COSMOS 2428 - Pass Details

Date: 03 August 2024
Orbit: 842 x 857 km, 70.9° (Epoch: 14 September)

Event Time Altitude Azimuth Distance (km) Brightness Sun altitude
Exits shadow 03:35:15 - 203° (SSW) 2,857 4.9 -7.8°
Reaches altitude 10° 03:36:18 10° 203° (SSW) 2,460 4.6 -7.6°
Maximum altitude 03:41:57 83° 117° (ESE) 860 2.8 -6.9°
Drops below altitude 10° 03:47:40 10° 30° (NNE) 2,486 6.4 -6.1°
Sets 03:50:08 0° 30° (NNE) 3,428 7.2 -5.8°
